Time,TemperatureF,DewpointF,PressureIn,WindDirection,WindDirectionDegrees,WindSpeedMPH,WindSpeedGustMPH,Humidity,HourlyPrecipIn,Conditions,Clouds,dailyrainin,SoftwareType,DateUTC
2013-01-19 00:00:00,30.4,27.0,30.54,SW,228,0.0,0.0,87,0.00,,SKC,0.00,VWS V14.01,2013-01-19 05:00:00,
2013-01-19 00:03:00,30.5,27.1,30.54,SW,228,0.0,0.0,87,0.00,,SKC,0.00,VWS V14.01,2013-01-19 05:03:00,
2013-01-19 00:07:00,30.4,26.7,30.54,SW,228,0.0,0.0,86,0.00,,SKC,0.00,VWS V14.01,2013-01-19 05:07:00,
2013-01-19 00:10:00,30.4,26.7,30.54,SW,228,0.0,0.0,86,0.00,,SKC,0.00,VWS V14.01,2013-01-19 05:10:00,
2013-01-19 00:15:00,30.4,26.7,30.54,SW,228,0.0,0.0,86,0.00,,SKC,0.00,VWS V14.01,2013-01-19 05:15:00,
2013-01-19 00:21:00,30.5,26.5,30.54,SW,228,0.0,0.0,85,0.00,,SKC,0.00,VWS V14.01,2013-01-19 05:21:00,
2013-01-19 00:26:00,30.3,26.6,30.54,SW,228,0.0,0.0,86,0.00,,SKC,0.00,VWS V14.01,2013-01-19 05:26:00,
2013-01-19 00:30:00,30.2,26.5,30.54,SW,228,0.0,0.0,86,0.00,,SKC,0.00,VWS V14.01,2013-01-19 05:30:00,
2013-01-19 00:32:00,30.0,26.3,30.54,SW,228,0.0,0.0,86,0.00,,SKC,0.00,VWS V14.01,2013-01-19 05:32:00,
2013-01-19 00:37:00,30.1,26.4,30.54,SW,228,0.0,0.0,86,0.00,,SKC,0.00,VWS V14.01,2013-01-19 05:37:00,
2013-01-19 00:43:00,30.4,26.4,30.54,SW,228,0.0,0.0,85,0.00,,SKC,0.00,VWS V14.01,2013-01-19 05:43:00,
2013-01-19 00:48:00,30.5,26.2,30.54,SW,228,0.0,0.0,84,0.00,,SKC,0.00,VWS V14.01,2013-01-19 05:48:00,
2013-01-19 00:54:00,30.5,26.2,30.54,SW,227,0.0,0.0,84,0.00,,SKC,0.00,VWS V14.01,2013-01-19 05:54:00,
2013-01-19 00:59:00,30.7,26.2,30.54,SW,228,0.0,0.0,83,0.00,,SKC,0.00,VWS V14.01,2013-01-19 05:59:00,
2013-01-19 01:00:00,30.7,26.2,30.54,SW,228,0.0,0.0,83,0.00,,SKC,0.00,VWS V14.01,2013-01-19 06:00:00,
2013-01-19 01:05:00,30.6,25.8,30.54,SW,228,0.0,0.0,82,0.00,,SKC,0.00,VWS V14.01,2013-01-19 06:05:00,
2013-01-19 01:10:00,30.4,25.3,30.54,SW,228,0.0,0.0,81,0.00,,SKC,0.00,VWS V14.01,2013-01-19 06:10:00,
2013-01-19 01:16:00,30.2,26.0,30.54,SW,228,0.0,0.0,84,0.00,,SKC,0.00,VWS V14.01,2013-01-19 06:16:00,
2013-01-19 01:21:00,30.1,26.1,30.54,SW,228,0.0,0.0,85,0.00,,SKC,0.00,VWS V14.01,2013-01-19 06:21:00,
2013-01-19 01:27:00,30.0,26.0,30.54,SW,228,0.0,0.0,85,0.00,,SKC,0.00,VWS V14.01,2013-01-19 06:27:00,
2013-01-19 01:30:00,30.0,26.0,30.54,SW,228,0.0,0.0,85,0.00,,SKC,0.00,VWS V14.01,2013-01-19 06:30:00,
2013-01-19 01:32:00,29.9,25.7,30.54,SW,228,0.0,0.0,84,0.00,,SKC,0.00,VWS V14.01,2013-01-19 06:32:00,
2013-01-19 01:38:00,30.0,25.8,30.54,SW,228,0.0,0.0,84,0.00,,SKC,0.00,VWS V14.01,2013-01-19 06:38:00,
2013-01-19 01:43:00,30.1,25.6,30.55,SW,228,0.0,0.0,83,0.00,,SKC,0.00,VWS V14.01,2013-01-19 06:43:00,
2013-01-19 01:49:00,30.1,25.9,30.55,SW,228,0.0,0.0,84,0.00,,SKC,0.00,VWS V14.01,2013-01-19 06:49:00,
2013-01-19 01:54:00,30.0,25.8,30.55,SW,228,0.0,0.0,84,0.00,,SKC,0.00,VWS V14.01,2013-01-19 06:54:00,
2013-01-19 01:59:00,29.7,25.5,30.55,SW,228,0.0,0.0,84,0.00,,SKC,0.00,VWS V14.01,2013-01-19 06:59:00,
2013-01-19 02:00:00,29.7,25.5,30.55,SW,228,0.0,0.0,84,0.00,,SKC,0.00,VWS V14.01,2013-01-19 07:00:00,
2013-01-19 02:05:00,29.4,25.5,30.55,SW,228,0.0,0.0,85,0.00,,SKC,0.00,VWS V14.01,2013-01-19 07:05:00,
2013-01-19 02:10:00,29.0,25.1,30.55,SW,228,0.0,0.0,85,0.00,,SKC,0.00,VWS V14.01,2013-01-19 07:10:00,
2013-01-19 02:17:00,28.6,25.0,30.55,SW,228,0.0,0.0,86,0.00,,SKC,0.00,VWS V14.01,2013-01-19 07:17:00,
2013-01-19 02:23:00,28.3,24.9,30.55,SW,228,0.0,0.0,87,0.00,,SKC,0.00,VWS V14.01,2013-01-19 07:23:00,
2013-01-19 02:28:00,28.1,25.0,30.54,SW,228,0.0,0.0,88,0.00,,SKC,0.00,VWS V14.01,2013-01-19 07:28:00,
2013-01-19 02:30:00,28.2,25.1,30.55,SW,228,0.0,0.0,88,0.00,,SKC,0.00,VWS V14.01,2013-01-19 07:30:00,
2013-01-19 02:34:00,28.2,25.1,30.54,SW,228,0.0,0.0,88,0.00,,SKC,0.00,VWS V14.01,2013-01-19 07:34:00,
2013-01-19 02:39:00,28.2,25.1,30.54,SW,228,0.0,0.0,88,0.00,,SKC,0.00,VWS V14.01,2013-01-19 07:39:00,
2013-01-19 02:45:00,28.2,24.8,30.54,SW,228,0.0,0.0,87,0.00,,SKC,0.00,VWS V14.01,2013-01-19 07:45:00,
2013-01-19 02:50:00,28.0,24.6,30.54,SW,228,0.0,0.0,87,0.00,,SKC,0.00,VWS V14.01,2013-01-19 07:50:00,
2013-01-19 02:56:00,27.9,24.8,30.54,SW,228,0.0,0.0,88,0.00,,SKC,0.00,VWS V14.01,2013-01-19 07:56:00,
2013-01-19 03:00:00,27.7,24.6,30.54,SW,228,0.0,0.0,88,0.00,,SKC,0.00,VWS V14.01,2013-01-19 08:00:00,
2013-01-19 03:01:00,27.6,24.2,30.54,SW,228,0.0,0.0,87,0.00,,SKC,0.00,VWS V14.01,2013-01-19 08:01:00,
2013-01-19 03:07:00,27.4,24.3,30.54,SW,228,0.0,0.0,88,0.00,,SKC,0.00,VWS V14.01,2013-01-19 08:07:00,
2013-01-19 03:12:00,27.3,24.5,30.54,SW,228,0.0,0.0,89,0.00,,SKC,0.00,VWS V14.01,2013-01-19 08:12:00,
2013-01-19 03:17:00,27.2,24.4,30.54,SW,228,0.0,0.0,89,0.00,,SKC,0.00,VWS V14.01,2013-01-19 08:17:00,
2013-01-19 03:23:00,27.1,24.3,30.54,SW,228,0.0,0.0,89,0.00,,SKC,0.00,VWS V14.01,2013-01-19 08:23:00,
2013-01-19 03:28:00,27.0,24.2,30.54,SW,228,0.0,0.0,89,0.00,,SKC,0.00,VWS V14.01,2013-01-19 08:28:00,
2013-01-19 03:30:00,27.0,24.2,30.54,SW,228,0.0,0.0,89,0.00,,SKC,0.00,VWS V14.01,2013-01-19 08:30:00,
2013-01-19 03:34:00,27.0,24.2,30.54,SW,228,0.0,0.0,89,0.00,,SKC,0.00,VWS V14.01,2013-01-19 08:34:00,
2013-01-19 03:39:00,27.0,24.2,30.54,SW,228,0.0,0.0,89,0.00,,SKC,0.00,VWS V14.01,2013-01-19 08:39:00,
2013-01-19 03:45:00,26.8,24.0,30.54,SW,228,0.0,0.0,89,0.00,,SKC,0.00,VWS V14.01,2013-01-19 08:45:00,
2013-01-19 03:50:00,26.7,23.9,30.54,SW,228,0.0,0.0,89,0.00,,SKC,0.00,VWS V14.01,2013-01-19 08:50:00,
2013-01-19 03:55:00,26.8,24.0,30.53,SW,228,0.0,0.0,89,0.00,,SKC,0.00,VWS V14.01,2013-01-19 08:55:00,
2013-01-19 04:00:00,26.9,24.1,30.53,SW,229,0.0,0.0,89,0.00,,SKC,0.00,VWS V14.01,2013-01-19 09:00:00,
2013-01-19 04:01:00,26.9,24.1,30.53,SW,228,0.0,0.0,89,0.00,,SKC,0.00,VWS V14.01,2013-01-19 09:01:00,
2013-01-19 04:06:00,27.0,24.2,30.53,SW,228,0.0,0.0,89,0.00,,SKC,0.00,VWS V14.01,2013-01-19 09:06:00,
2013-01-19 04:11:00,27.3,24.5,30.53,SW,228,0.0,0.0,89,0.00,,SKC,0.00,VWS V14.01,2013-01-19 09:11:00,
2013-01-19 04:17:00,27.4,24.6,30.53,SW,228,0.0,0.0,89,0.00,,SKC,0.00,VWS V14.01,2013-01-19 09:17:00,
2013-01-19 04:22:00,27.2,24.4,30.53,SW,228,0.0,0.0,89,0.00,,SKC,0.00,VWS V14.01,2013-01-19 09:22:00,
2013-01-19 04:28:00,27.0,24.5,30.53,SW,228,0.0,0.0,90,0.00,,SKC,0.00,VWS V14.01,2013-01-19 09:28:00,
2013-01-19 04:30:00,27.0,24.5,30.53,SW,228,0.0,0.0,90,0.00,,SKC,0.00,VWS V14.01,2013-01-19 09:30:00,
2013-01-19 04:33:00,26.8,24.3,30.53,SW,228,0.0,0.0,90,0.00,,SKC,0.00,VWS V14.01,2013-01-19 09:33:00,
2013-01-19 04:39:00,26.6,23.8,30.53,SW,228,0.0,0.0,89,0.00,,SKC,0.00,VWS V14.01,2013-01-19 09:39:00,
2013-01-19 04:44:00,26.4,23.9,30.53,SW,228,0.0,0.0,90,0.00,,SKC,0.00,VWS V14.01,2013-01-19 09:44:00,
2013-01-19 04:50:00,26.5,23.7,30.53,SW,228,0.0,0.0,89,0.00,,SKC,0.00,VWS V14.01,2013-01-19 09:50:00,
2013-01-19 04:55:00,26.5,24.0,30.53,SW,228,0.0,0.0,90,0.00,,SKC,0.00,VWS V14.01,2013-01-19 09:55:00,
2013-01-19 05:00:00,26.4,23.9,30.53,SW,228,0.0,0.0,90,0.00,,SKC,0.00,VWS V14.01,2013-01-19 10:00:00,
2013-01-19 05:01:00,26.3,23.8,30.53,SW,228,0.0,0.0,90,0.00,,SKC,0.00,VWS V14.01,2013-01-19 10:01:00,
2013-01-19 05:06:00,26.1,23.6,30.53,SW,228,0.0,0.0,90,0.00,,SKC,0.00,VWS V14.01,2013-01-19 10:06:00,
2013-01-19 05:12:00,25.9,23.4,30.53,SW,228,0.0,0.0,90,0.00,,SKC,0.00,VWS V14.01,2013-01-19 10:12:00,
2013-01-19 05:17:00,25.8,23.3,30.53,SW,228,0.0,0.0,90,0.00,,SKC,0.00,VWS V14.01,2013-01-19 10:17:00,
2013-01-19 05:23:00,25.7,23.2,30.53,SW,228,0.0,0.0,90,0.00,,SKC,0.00,VWS V14.01,2013-01-19 10:23:00,
2013-01-19 05:28:00,25.7,23.2,30.53,SW,228,0.0,0.0,90,0.00,,SKC,0.00,VWS V14.01,2013-01-19 10:28:00,
2013-01-19 05:30:00,25.7,23.2,30.53,SW,228,0.0,0.0,90,0.00,,SKC,0.00,VWS V14.01,2013-01-19 10:30:00,
2013-01-19 05:33:00,25.7,23.2,30.53,SW,228,0.0,0.0,90,0.00,,SKC,0.00,VWS V14.01,2013-01-19 10:33:00,
2013-01-19 05:39:00,25.7,23.2,30.53,SW,228,0.0,0.0,90,0.00,,SKC,0.00,VWS V14.01,2013-01-19 10:39:00,
2013-01-19 05:44:00,25.8,23.0,30.52,SW,228,0.0,0.0,89,0.00,,SKC,0.00,VWS V14.01,2013-01-19 10:44:00,
2013-01-19 05:50:00,25.7,23.2,30.52,SW,228,0.0,0.0,90,0.00,,SKC,0.00,VWS V14.01,2013-01-19 10:50:00,
2013-01-19 05:55:00,25.6,23.1,30.52,SW,228,0.0,0.0,90,0.00,,SKC,0.00,VWS V14.01,2013-01-19 10:55:00,
2013-01-19 06:00:00,25.5,23.0,30.52,SW,228,0.0,0.0,90,0.00,,SKC,0.00,VWS V14.01,2013-01-19 11:00:00,
2013-01-19 06:01:00,25.5,23.0,30.52,SW,228,0.0,0.0,90,0.00,,SKC,0.00,VWS V14.01,2013-01-19 11:01:00,
2013-01-19 06:06:00,25.3,22.8,30.52,SW,228,0.0,0.0,90,0.00,,SKC,0.00,VWS V14.01,2013-01-19 11:06:00,
2013-01-19 06:12:00,25.3,22.8,30.52,SW,228,0.0,0.0,90,0.00,,SKC,0.00,VWS V14.01,2013-01-19 11:12:00,
2013-01-19 06:30:00,25.8,23.0,30.52,SW,228,0.0,0.0,89,0.00,,SKC,0.00,VWS V14.01,2013-01-19 11:30:00,
2013-01-19 07:00:00,25.3,22.8,30.52,SW,228,0.0,0.0,90,0.00,,SKC,0.00,VWS V14.01,2013-01-19 12:00:00,
2013-01-19 07:30:00,25.0,22.5,30.52,SW,228,0.0,0.0,90,0.00,,SKC,0.00,VWS V14.01,2013-01-19 12:30:00,
2013-01-19 07:49:00,24.9,22.1,30.52,SW,229,0.0,0.0,89,0.00,,SKC,0.00,VWS V14.01,2013-01-19 12:49:00,
2013-01-19 07:53:00,24.9,22.1,30.52,SW,228,0.0,0.0,89,0.00,,SKC,0.00,VWS V14.01,2013-01-19 12:53:00,
2013-01-19 07:54:00,24.9,22.1,30.52,SW,229,0.0,0.0,89,0.00,,SKC,0.00,VWS V14.01,2013-01-19 12:54:00,
2013-01-19 08:00:00,25.0,22.2,30.52,SW,228,0.0,0.0,89,0.00,,SKC,0.00,VWS V14.01,2013-01-19 13:00:00,
2013-01-19 08:04:00,25.1,22.3,30.52,SW,228,0.0,0.0,89,0.00,,SKC,0.00,VWS V14.01,2013-01-19 13:04:00,
2013-01-19 08:09:00,25.3,22.2,30.52,SW,228,0.0,0.0,88,0.00,,SKC,0.00,VWS V14.01,2013-01-19 13:09:00,
2013-01-19 08:15:00,25.6,22.5,30.51,SW,228,0.0,0.0,88,0.00,,SKC,0.00,VWS V14.01,2013-01-19 13:15:00,
2013-01-19 08:20:00,25.9,22.8,30.52,SW,228,0.0,0.0,88,0.00,,SKC,0.00,VWS V14.01,2013-01-19 13:20:00,
2013-01-19 08:25:00,26.2,23.1,30.52,SW,228,0.0,0.0,88,0.00,,SKC,0.00,VWS V14.01,2013-01-19 13:25:00,
2013-01-19 08:30:00,26.3,23.2,30.52,SW,228,0.0,0.0,88,0.00,,SKC,0.00,VWS V14.01,2013-01-19 13:30:00,
2013-01-19 08:31:00,26.4,23.3,30.51,SW,228,0.0,0.0,88,0.00,,SKC,0.00,VWS V14.01,2013-01-19 13:31:00,
2013-01-19 08:36:00,26.6,23.5,30.51,SW,228,0.0,0.0,88,0.00,,SKC,0.00,VWS V14.01,2013-01-19 13:36:00,
2013-01-19 08:42:00,27.0,23.9,30.51,SW,228,0.0,0.0,88,0.00,,SKC,0.00,VWS V14.01,2013-01-19 13:42:00,
2013-01-19 08:47:00,27.5,24.4,30.51,SW,228,0.0,0.0,88,0.00,,SKC,0.00,VWS V14.01,2013-01-19 13:47:00,
2013-01-19 08:53:00,28.3,25.2,30.51,SW,228,0.0,0.0,88,0.00,,SKC,0.00,VWS V14.01,2013-01-19 13:53:00,
2013-01-19 08:58:00,29.3,26.2,30.52,SW,229,0.0,0.0,88,0.00,,SKC,0.00,VWS V14.01,2013-01-19 13:58:00,
2013-01-19 09:00:00,29.4,26.3,30.52,SW,229,0.0,0.0,88,0.00,,SKC,0.00,VWS V14.01,2013-01-19 14:00:00,
2013-01-19 09:04:00,30.4,27.5,30.52,SW,229,0.0,0.0,89,0.00,,SKC,0.00,VWS V14.01,2013-01-19 14:04:00,
2013-01-19 09:09:00,31.7,29.1,30.52,SW,229,0.0,0.0,90,0.00,,SKC,0.00,VWS V14.01,2013-01-19 14:09:00,
2013-01-19 09:15:00,32.8,29.4,30.52,SW,229,0.0,0.0,87,0.00,,SKC,0.00,VWS V14.01,2013-01-19 14:15:00,
2013-01-19 09:20:00,33.8,29.8,30.52,SW,229,0.0,0.0,85,0.00,,SKC,0.00,VWS V14.01,2013-01-19 14:20:00,
2013-01-19 09:26:00,34.7,29.8,30.52,SW,229,0.0,0.0,82,0.00,,SKC,0.00,VWS V14.01,2013-01-19 14:26:00,
2013-01-19 09:30:00,35.2,30.0,30.52,SW,229,0.0,0.0,81,0.00,,SKC,0.00,VWS V14.01,2013-01-19 14:30:00,
2013-01-19 09:31:00,35.5,30.0,30.52,SW,229,0.0,0.0,80,0.00,,SKC,0.00,VWS V14.01,2013-01-19 14:31:00,
2013-01-19 09:37:00,36.2,30.0,30.52,SW,229,0.0,0.0,78,0.00,,SKC,0.00,VWS V14.01,2013-01-19 14:37:00,
2013-01-19 09:42:00,37.0,30.5,30.52,SW,229,0.0,0.0,77,0.00,,SKC,0.00,VWS V14.01,2013-01-19 14:42:00,
2013-01-19 09:47:00,37.8,30.3,30.52,SW,229,0.0,0.0,74,0.00,,SKC,0.00,VWS V14.01,2013-01-19 14:47:00,
2013-01-19 09:53:00,38.5,29.9,30.52,SW,229,0.0,0.0,71,0.00,,SKC,0.00,VWS V14.01,2013-01-19 14:53:00,
2013-01-19 09:58:00,39.2,28.8,30.52,SW,229,0.0,0.0,66,0.00,,SKC,0.00,VWS V14.01,2013-01-19 14:58:00,
2013-01-19 10:00:00,39.4,29.0,30.52,SW,229,0.0,0.0,66,0.00,,SKC,0.00,VWS V14.01,2013-01-19 15:00:00,
2013-01-19 10:04:00,39.9,28.0,30.52,SW,227,0.0,0.0,62,0.00,,SKC,0.00,VWS V14.01,2013-01-19 15:04:00,
2013-01-19 10:09:00,40.7,29.5,30.52,SW,227,0.0,0.0,64,0.00,,SKC,0.00,VWS V14.01,2013-01-19 15:09:00,
2013-01-19 10:15:00,41.1,25.3,30.52,West,278,0.0,1.0,53,0.00,,SKC,0.00,VWS V14.01,2013-01-19 15:15:00,
2013-01-19 10:25:00,41.7,25.9,30.51,WNW,297,1.0,1.0,53,0.00,,SKC,0.00,VWS V14.01,2013-01-19 15:25:00,
2013-01-19 10:30:00,41.9,25.6,30.51,South,184,0.0,0.0,52,0.00,,SKC,0.00,VWS V14.01,2013-01-19 15:30:00,
2013-01-19 10:36:00,42.7,26.8,30.51,WSW,245,0.0,1.0,53,0.00,,SKC,0.00,VWS V14.01,2013-01-19 15:36:00,
2013-01-19 10:41:00,43.3,26.4,30.51,WNW,290,0.0,2.0,51,0.00,,SKC,0.00,VWS V14.01,2013-01-19 15:41:00,
2013-01-19 10:47:00,43.6,25.7,30.50,West,276,1.0,2.0,49,0.00,,SKC,0.00,VWS V14.01,2013-01-19 15:47:00,
2013-01-19 10:52:00,43.7,26.3,30.50,West,281,0.0,2.0,50,0.00,,SKC,0.00,VWS V14.01,2013-01-19 15:52:00,
2013-01-19 10:58:00,44.4,26.9,30.50,SW,220,0.0,2.0,50,0.00,,SKC,0.00,VWS V14.01,2013-01-19 15:58:00,
2013-01-19 11:00:00,44.7,28.2,30.50,WNW,287,2.0,2.0,52,0.00,,SKC,0.00,VWS V14.01,2013-01-19 16:00:00,
2013-01-19 11:03:00,44.9,26.9,30.50,West,274,0.0,2.0,49,0.00,,SKC,0.00,VWS V14.01,2013-01-19 16:03:00,
2013-01-19 11:08:00,45.3,27.8,30.50,SSE,149,1.0,2.0,50,0.00,,SKC,0.00,VWS V14.01,2013-01-19 16:08:00,
2013-01-19 11:14:00,45.5,27.5,30.49,SE,146,0.0,2.0,49,0.00,,SKC,0.00,VWS V14.01,2013-01-19 16:14:00,
2013-01-19 11:19:00,45.9,27.8,30.49,SSW,211,0.0,2.0,49,0.00,,SKC,0.00,VWS V14.01,2013-01-19 16:19:00,
2013-01-19 11:25:00,46.0,27.4,30.49,WSW,252,0.0,3.0,48,0.00,,SKC,0.00,VWS V14.01,2013-01-19 16:25:00,
2013-01-19 11:30:00,46.1,27.0,30.48,South,188,3.0,3.0,47,0.00,,SKC,0.00,VWS V14.01,2013-01-19 16:30:00,
2013-01-19 11:36:00,46.1,27.0,30.48,SE,146,1.0,3.0,47,0.00,,SKC,0.00,VWS V14.01,2013-01-19 16:36:00,
2013-01-19 11:41:00,45.9,27.3,30.48,SE,135,2.0,3.0,48,0.00,,SKC,0.00,VWS V14.01,2013-01-19 16:41:00,
2013-01-19 11:46:00,46.0,27.4,30.48,West,276,1.0,3.0,48,0.00,,SKC,0.00,VWS V14.01,2013-01-19 16:46:00,
2013-01-19 11:52:00,46.3,27.2,30.47,SW,231,0.0,3.0,47,0.00,,SKC,0.00,VWS V14.01,2013-01-19 16:52:00,
2013-01-19 11:57:00,46.5,27.9,30.47,West,281,1.0,3.0,48,0.00,,SKC,0.00,VWS V14.01,2013-01-19 16:57:00,
2013-01-19 12:00:00,46.7,27.6,30.47,WNW,285,0.0,3.0,47,0.00,,SKC,0.00,VWS V14.01,2013-01-19 17:00:00,
2013-01-19 12:03:00,47.3,28.1,30.46,WNW,299,0.0,1.0,47,0.00,,SKC,0.00,VWS V14.01,2013-01-19 17:03:00,
2013-01-19 12:08:00,47.9,28.1,30.46,West,269,1.0,3.0,46,0.00,,SKC,0.00,VWS V14.01,2013-01-19 17:08:00,
2013-01-19 12:14:00,48.2,27.9,30.45,West,262,1.0,3.0,45,0.00,,SKC,0.00,VWS V14.01,2013-01-19 17:14:00,
2013-01-19 12:20:00,48.8,29.0,30.45,ESE,110,1.0,3.0,46,0.00,,SKC,0.00,VWS V14.01,2013-01-19 17:20:00,
2013-01-19 12:27:00,49.4,28.4,30.44,WNW,297,2.0,3.0,44,0.00,,SKC,0.00,VWS V14.01,2013-01-19 17:27:00,
2013-01-19 12:30:00,49.4,27.9,30.44,SSE,153,2.0,3.0,43,0.00,,SKC,0.00,VWS V14.01,2013-01-19 17:30:00,
2013-01-19 12:34:00,50.0,29.0,30.43,NW,308,1.0,3.0,44,0.00,,SKC,0.00,VWS V14.01,2013-01-19 17:34:00,
2013-01-19 12:39:00,50.4,28.2,30.42,WNW,284,1.0,3.0,42,0.00,,SKC,0.00,VWS V14.01,2013-01-19 17:39:00,
2013-01-19 12:45:00,50.5,28.3,30.42,West,276,2.0,3.0,42,0.00,,SKC,0.00,VWS V14.01,2013-01-19 17:45:00,
2013-01-19 12:50:00,50.3,29.2,30.41,SW,221,2.0,3.0,44,0.00,,SKC,0.00,VWS V14.01,2013-01-19 17:50:00,
2013-01-19 12:57:00,50.5,28.3,30.41,WSW,256,0.0,3.0,42,0.00,,SKC,0.00,VWS V14.01,2013-01-19 17:57:00,
2013-01-19 13:00:00,50.5,27.1,30.41,South,188,2.0,3.0,40,0.00,,SKC,0.00,VWS V14.01,2013-01-19 18:00:00,
2013-01-19 13:03:00,50.7,27.9,30.41,WSW,238,2.0,2.0,41,0.00,,SKC,0.00,VWS V14.01,2013-01-19 18:03:00,
2013-01-19 13:09:00,51.6,28.7,30.40,WNW,298,1.0,2.0,41,0.00,,SKC,0.00,VWS V14.01,2013-01-19 18:09:00,
2013-01-19 13:14:00,50.9,26.8,30.40,WNW,295,1.0,5.0,39,0.00,,SKC,0.00,VWS V14.01,2013-01-19 18:14:00,
2013-01-19 13:23:00,51.4,30.2,30.39,SE,139,0.0,5.0,44,0.00,,SKC,0.00,VWS V14.01,2013-01-19 18:23:00,
2013-01-19 13:29:00,52.3,28.1,30.39,SW,226,1.0,5.0,39,0.00,,SKC,0.00,VWS V14.01,2013-01-19 18:29:00,
2013-01-19 13:30:00,52.4,28.8,30.39,WNW,283,1.0,5.0,40,0.00,,SKC,0.00,VWS V14.01,2013-01-19 18:30:00,
2013-01-19 13:34:00,52.7,27.8,30.38,SSE,149,0.0,2.0,38,0.00,,SKC,0.00,VWS V14.01,2013-01-19 18:34:00,
2013-01-19 13:40:00,53.7,28.1,30.38,WNW,290,0.0,3.0,37,0.00,,SKC,0.00,VWS V14.01,2013-01-19 18:40:00,
2013-01-19 13:45:00,54.0,27.7,30.38,West,262,2.0,3.0,36,0.00,,SKC,0.00,VWS V14.01,2013-01-19 18:45:00,
2013-01-19 13:52:00,53.4,28.5,30.37,SSE,156,2.0,4.0,38,0.00,,SKC,0.00,VWS V14.01,2013-01-19 18:52:00,
2013-01-19 13:59:00,53.7,27.4,30.37,WSW,252,0.0,4.0,36,0.00,,SKC,0.00,VWS V14.01,2013-01-19 18:59:00,
2013-01-19 14:00:00,53.7,27.4,30.37,WSW,252,0.0,4.0,36,0.00,,SKC,0.00,VWS V14.01,2013-01-19 19:00:00,
2013-01-19 14:10:00,54.2,27.9,30.36,WSW,246,1.0,3.0,36,0.00,,SKC,0.00,VWS V14.01,2013-01-19 19:10:00,
2013-01-19 14:17:00,53.9,26.2,30.36,West,259,0.0,3.0,34,0.00,,SKC,0.00,VWS V14.01,2013-01-19 19:17:00,
2013-01-19 14:26:00,53.5,25.1,30.35,SW,225,1.0,6.0,33,0.00,,SKC,0.00,VWS V14.01,2013-01-19 19:26:00,
2013-01-19 14:30:00,53.2,26.3,30.35,NW,308,0.0,6.0,35,0.00,,SKC,0.00,VWS V14.01,2013-01-19 19:30:00,
2013-01-19 14:32:00,53.1,24.8,30.35,West,266,2.0,3.0,33,0.00,,SKC,0.00,VWS V14.01,2013-01-19 19:32:00,
2013-01-19 14:38:00,53.1,26.2,30.35,WSW,246,2.0,3.0,35,0.00,,SKC,0.00,VWS V14.01,2013-01-19 19:38:00,
2013-01-19 14:44:00,53.0,24.0,30.35,WNW,298,5.0,5.0,32,0.00,,SKC,0.00,VWS V14.01,2013-01-19 19:44:00,
2013-01-19 14:49:00,52.3,25.5,30.34,West,278,0.0,5.0,35,0.00,,SKC,0.00,VWS V14.01,2013-01-19 19:49:00,
2013-01-19 14:55:00,52.4,24.9,30.34,NW,307,3.0,5.0,34,0.00,,SKC,0.00,VWS V14.01,2013-01-19 19:55:00,
2013-01-19 15:00:00,52.4,25.6,30.34,WSW,256,1.0,5.0,35,0.00,,SKC,0.00,VWS V14.01,2013-01-19 20:00:00,
2013-01-19 15:04:00,52.5,25.7,30.33,WNW,289,0.0,4.0,35,0.00,,SKC,0.00,VWS V14.01,2013-01-19 20:04:00,
2013-01-19 15:10:00,52.7,24.4,30.33,WNW,288,0.0,4.0,33,0.00,,SKC,0.00,VWS V14.01,2013-01-19 20:10:00,
2013-01-19 15:15:00,53.0,24.7,30.33,SW,226,1.0,4.0,33,0.00,,SKC,0.00,VWS V14.01,2013-01-19 20:15:00,
2013-01-19 15:23:00,52.8,23.8,30.33,West,266,2.0,4.0,32,0.00,,SKC,0.00,VWS V14.01,2013-01-19 20:23:00,
2013-01-19 15:28:00,52.7,24.4,30.33,SE,141,1.0,4.0,33,0.00,,SKC,0.00,VWS V14.01,2013-01-19 20:28:00,
2013-01-19 15:30:00,52.6,24.3,30.32,West,280,0.0,4.0,33,0.00,,SKC,0.00,VWS V14.01,2013-01-19 20:30:00,
2013-01-19 15:34:00,52.6,23.6,30.32,West,259,0.0,3.0,32,0.00,,SKC,0.00,VWS V14.01,2013-01-19 20:34:00,
2013-01-19 15:40:00,52.4,22.7,30.32,SSW,209,1.0,6.0,31,0.00,,SKC,0.00,VWS V14.01,2013-01-19 20:40:00,
2013-01-19 15:48:00,52.6,23.6,30.32,SW,226,0.0,6.0,32,0.00,,SKC,0.00,VWS V14.01,2013-01-19 20:48:00,
2013-01-19 15:54:00,52.9,24.6,30.32,SW,225,0.0,6.0,33,0.00,,SKC,0.00,VWS V14.01,2013-01-19 20:54:00,
2013-01-19 15:59:00,52.7,21.4,30.32,WNW,300,1.0,6.0,29,0.00,,SKC,0.00,VWS V14.01,2013-01-19 20:59:00,
2013-01-19 16:00:00,52.7,22.2,30.32,WSW,257,3.0,6.0,30,0.00,,SKC,0.00,VWS V14.01,2013-01-19 21:00:00,
2013-01-19 16:07:00,52.2,22.5,30.32,WNW,288,3.0,5.0,31,0.00,,SKC,0.00,VWS V14.01,2013-01-19 21:07:00,
2013-01-19 16:12:00,52.0,23.1,30.32,SW,227,3.0,5.0,32,0.00,,SKC,0.00,VWS V14.01,2013-01-19 21:12:00,
2013-01-19 16:18:00,51.9,24.4,30.32,SSE,154,0.0,5.0,34,0.00,,SKC,0.00,VWS V14.01,2013-01-19 21:18:00,
2013-01-19 16:23:00,52.0,24.5,30.32,West,276,0.0,5.0,34,0.00,,SKC,0.00,VWS V14.01,2013-01-19 21:23:00,
2013-01-19 16:30:00,51.6,24.2,30.31,West,277,0.0,5.0,34,0.00,,SKC,0.00,VWS V14.01,2013-01-19 21:30:00,
2013-01-19 16:31:00,51.4,24.0,30.32,WNW,288,1.0,1.0,34,0.00,,SKC,0.00,VWS V14.01,2013-01-19 21:31:00,
2013-01-19 16:39:00,50.8,24.1,30.32,West,266,0.0,3.0,35,0.00,,SKC,0.00,VWS V14.01,2013-01-19 21:39:00,
2013-01-19 16:44:00,50.4,23.1,30.31,West,274,0.0,4.0,34,0.00,,SKC,0.00,VWS V14.01,2013-01-19 21:44:00,
2013-01-19 16:50:00,50.0,23.4,30.32,WSW,239,0.0,4.0,35,0.00,,SKC,0.00,VWS V14.01,2013-01-19 21:50:00,
2013-01-19 16:57:00,49.7,22.5,30.32,NW,308,0.0,4.0,34,0.00,,SKC,0.00,VWS V14.01,2013-01-19 21:57:00,
2013-01-19 17:00:00,49.6,22.4,30.31,WNW,293,0.0,4.0,34,0.00,,SKC,0.00,VWS V14.01,2013-01-19 22:00:00,
2013-01-19 17:09:00,49.0,21.2,30.32,WSW,245,0.0,2.0,33,0.00,,SKC,0.00,VWS V14.01,2013-01-19 22:09:00,
2013-01-19 17:15:00,48.8,21.7,30.32,SW,236,1.0,2.0,34,0.00,,SKC,0.00,VWS V14.01,2013-01-19 22:15:00,
2013-01-19 17:20:00,48.3,21.9,30.31,SSE,167,0.0,2.0,35,0.00,,SKC,0.00,VWS V14.01,2013-01-19 22:20:00,
2013-01-19 17:27:00,47.6,23.3,30.31,WNW,287,1.0,2.0,38,0.00,,SKC,0.00,VWS V14.01,2013-01-19 22:27:00,
2013-01-19 17:30:00,47.4,23.7,30.31,West,274,0.0,2.0,39,0.00,,SKC,0.00,VWS V14.01,2013-01-19 22:30:00,
2013-01-19 17:33:00,47.1,23.4,30.31,West,274,0.0,0.0,39,0.00,,SKC,0.00,VWS V14.01,2013-01-19 22:33:00,
2013-01-19 17:39:00,46.6,24.2,30.31,WNW,290,0.0,2.0,41,0.00,,SKC,0.00,VWS V14.01,2013-01-19 22:39:00,
2013-01-19 17:44:00,46.1,24.3,30.31,WNW,293,0.0,2.0,42,0.00,,SKC,0.00,VWS V14.01,2013-01-19 22:44:00,
2013-01-19 17:50:00,45.6,24.4,30.30,WNW,293,0.0,2.0,43,0.00,,SKC,0.00,VWS V14.01,2013-01-19 22:50:00,
2013-01-19 17:56:00,45.2,25.1,30.31,WNW,293,0.0,2.0,45,0.00,,SKC,0.00,VWS V14.01,2013-01-19 22:56:00,
2013-01-19 18:00:00,44.9,25.4,30.31,WNW,293,0.0,2.0,46,0.00,,SKC,0.00,VWS V14.01,2013-01-19 23:00:00,
2013-01-19 18:02:00,44.7,25.2,30.31,WNW,293,0.0,0.0,46,0.00,,SKC,0.00,VWS V14.01,2013-01-19 23:02:00,
2013-01-19 18:07:00,44.3,25.4,30.31,WNW,293,0.0,0.0,47,0.00,,SKC,0.00,VWS V14.01,2013-01-19 23:07:00,
2013-01-19 18:14:00,44.1,25.7,30.31,WNW,293,0.0,0.0,48,0.00,,SKC,0.00,VWS V14.01,2013-01-19 23:14:00,
2013-01-19 18:19:00,43.9,26.0,30.31,WNW,293,0.0,0.0,49,0.00,,SKC,0.00,VWS V14.01,2013-01-19 23:19:00,
2013-01-19 18:25:00,43.5,26.6,30.31,WNW,293,0.0,0.0,51,0.00,,SKC,0.00,VWS V14.01,2013-01-19 23:25:00,
2013-01-19 18:30:00,43.3,25.9,30.31,WNW,294,0.0,0.0,50,0.00,,SKC,0.00,VWS V14.01,2013-01-19 23:30:00,
2013-01-19 18:35:00,42.9,27.0,30.31,WNW,293,0.0,0.0,53,0.00,,SKC,0.00,VWS V14.01,2013-01-19 23:35:00,
2013-01-19 18:43:00,42.4,26.5,30.31,WNW,293,0.0,0.0,53,0.00,,SKC,0.00,VWS V14.01,2013-01-19 23:43:00,
2013-01-19 18:50:00,42.2,26.3,30.31,WNW,294,0.0,0.0,53,0.00,,SKC,0.00,VWS V14.01,2013-01-19 23:50:00,
2013-01-19 18:56:00,41.9,26.5,30.32,WNW,294,0.0,0.0,54,0.00,,SKC,0.00,VWS V14.01,2013-01-19 23:56:00,
2013-01-19 19:00:00,41.8,26.4,30.32,WNW,294,0.0,0.0,54,0.00,,SKC,0.00,VWS V14.01,2013-01-20 00:00:00,
2013-01-19 19:02:00,41.7,26.3,30.32,WNW,294,0.0,0.0,54,0.00,,SKC,0.00,VWS V14.01,2013-01-20 00:02:00,
2013-01-19 19:07:00,41.5,26.1,30.32,WNW,294,0.0,0.0,54,0.00,,SKC,0.00,VWS V14.01,2013-01-20 00:07:00,
2013-01-19 19:13:00,41.2,25.8,30.32,WNW,294,0.0,0.0,54,0.00,,SKC,0.00,VWS V14.01,2013-01-20 00:13:00,
2013-01-19 19:19:00,41.0,26.1,30.32,North,350,0.0,0.0,55,0.00,,SKC,0.00,VWS V14.01,2013-01-20 00:19:00,
2013-01-19 19:25:00,41.0,26.1,30.32,WNW,294,0.0,1.0,55,0.00,,SKC,0.00,VWS V14.01,2013-01-20 00:25:00,
2013-01-19 19:30:00,40.9,26.0,30.32,WNW,294,0.0,0.0,55,0.00,,SKC,0.00,VWS V14.01,2013-01-20 00:30:00,
2013-01-19 19:37:00,40.8,25.9,30.32,WNW,294,0.0,1.0,55,0.00,,SKC,0.00,VWS V14.01,2013-01-20 00:37:00,
2013-01-19 19:44:00,40.7,25.8,30.32,WNW,294,0.0,1.0,55,0.00,,SKC,0.00,VWS V14.01,2013-01-20 00:44:00,
2013-01-19 19:49:00,40.5,25.6,30.32,WNW,294,0.0,1.0,55,0.00,,SKC,0.00,VWS V14.01,2013-01-20 00:49:00,
2013-01-19 19:55:00,40.5,26.5,30.32,WNW,294,0.0,1.0,57,0.00,,SKC,0.00,VWS V14.01,2013-01-20 00:55:00,
2013-01-19 20:00:00,40.4,27.2,30.32,WNW,294,0.0,1.0,59,0.00,,SKC,0.00,VWS V14.01,2013-01-20 01:00:00,
2013-01-19 20:01:00,40.4,27.2,30.32,WNW,294,0.0,0.0,59,0.00,,SKC,0.00,VWS V14.01,2013-01-20 01:01:00,
2013-01-19 20:08:00,39.8,27.5,30.32,WNW,294,0.0,0.0,61,0.00,,SKC,0.00,VWS V14.01,2013-01-20 01:08:00,
2013-01-19 20:13:00,39.3,26.6,30.31,WNW,294,0.0,0.0,60,0.00,,SKC,0.00,VWS V14.01,2013-01-20 01:13:00,
2013-01-19 20:19:00,39.0,26.3,30.31,WNW,294,0.0,0.0,60,0.00,,SKC,0.00,VWS V14.01,2013-01-20 01:19:00,
2013-01-19 20:25:00,38.8,26.1,30.31,WNW,294,0.0,0.0,60,0.00,,SKC,0.00,VWS V14.01,2013-01-20 01:25:00,
2013-01-19 20:30:00,38.7,26.4,30.31,WNW,294,0.0,0.0,61,0.00,,SKC,0.00,VWS V14.01,2013-01-20 01:30:00,
2013-01-19 20:36:00,38.4,26.1,30.31,WNW,294,0.0,0.0,61,0.00,,SKC,0.00,VWS V14.01,2013-01-20 01:36:00,
2013-01-19 20:41:00,38.0,25.8,30.31,WNW,294,0.0,0.0,61,0.00,,SKC,0.00,VWS V14.01,2013-01-20 01:41:00,
2013-01-19 20:48:00,37.8,26.0,30.31,WNW,294,0.0,0.0,62,0.00,,SKC,0.00,VWS V14.01,2013-01-20 01:48:00,
2013-01-19 20:55:00,37.6,26.2,30.31,WNW,294,0.0,0.0,63,0.00,,SKC,0.00,VWS V14.01,2013-01-20 01:55:00,
2013-01-19 21:00:00,37.5,26.1,30.30,WNW,294,0.0,0.0,63,0.00,,SKC,0.00,VWS V14.01,2013-01-20 02:00:00,
2013-01-19 21:01:00,37.5,26.1,30.31,WNW,294,0.0,0.0,63,0.00,,SKC,0.00,VWS V14.01,2013-01-20 02:01:00,
2013-01-19 21:07:00,37.3,26.3,30.30,WNW,294,0.0,0.0,64,0.00,,SKC,0.00,VWS V14.01,2013-01-20 02:07:00,
2013-01-19 21:12:00,37.2,26.2,30.30,WNW,294,0.0,0.0,64,0.00,,SKC,0.00,VWS V14.01,2013-01-20 02:12:00,
2013-01-19 21:19:00,37.4,26.4,30.30,WNW,294,0.0,0.0,64,0.00,,SKC,0.00,VWS V14.01,2013-01-20 02:19:00,
2013-01-19 21:27:00,37.4,26.7,30.30,WNW,294,0.0,0.0,65,0.00,,SKC,0.00,VWS V14.01,2013-01-20 02:27:00,
2013-01-19 21:30:00,37.3,26.2,30.29,WNW,294,0.0,0.0,64,0.00,,SKC,0.00,VWS V14.01,2013-01-20 02:30:00,
2013-01-19 21:34:00,37.1,26.4,30.29,WNW,294,0.0,0.0,65,0.00,,SKC,0.00,VWS V14.01,2013-01-20 02:34:00,
2013-01-19 21:40:00,36.9,26.2,30.29,WNW,294,0.0,0.0,65,0.00,,SKC,0.00,VWS V14.01,2013-01-20 02:40:00,
2013-01-19 21:45:00,36.8,26.1,30.29,WNW,294,0.0,0.0,65,0.00,,SKC,0.00,VWS V14.01,2013-01-20 02:45:00,
2013-01-19 21:54:00,36.7,26.4,30.29,WNW,294,0.0,0.0,66,0.00,,SKC,0.00,VWS V14.01,2013-01-20 02:54:00,
2013-01-19 21:59:00,36.7,26.4,30.29,WNW,294,0.0,0.0,66,0.00,,SKC,0.00,VWS V14.01,2013-01-20 02:59:00,
2013-01-19 22:00:00,36.7,26.4,30.29,WNW,294,0.0,0.0,66,0.00,,SKC,0.00,VWS V14.01,2013-01-20 03:00:00,
2013-01-19 22:05:00,36.7,26.4,30.29,WNW,294,0.0,0.0,66,0.00,,SKC,0.00,VWS V14.01,2013-01-20 03:05:00,
2013-01-19 22:12:00,36.4,26.5,30.29,WNW,294,0.0,0.0,67,0.00,,SKC,0.00,VWS V14.01,2013-01-20 03:12:00,
2013-01-19 22:18:00,36.3,26.4,30.29,WNW,294,0.0,0.0,67,0.00,,SKC,0.00,VWS V14.01,2013-01-20 03:18:00,
2013-01-19 22:24:00,36.4,26.5,30.29,WNW,294,0.0,0.0,67,0.00,,SKC,0.00,VWS V14.01,2013-01-20 03:24:00,
2013-01-19 22:29:00,36.5,26.6,30.29,WNW,294,0.0,0.0,67,0.00,,SKC,0.00,VWS V14.01,2013-01-20 03:29:00,
2013-01-19 22:30:00,36.5,26.6,30.29,WNW,294,0.0,0.0,67,0.00,,SKC,0.00,VWS V14.01,2013-01-20 03:30:00,
2013-01-19 22:35:00,36.5,26.2,30.28,WNW,294,0.0,0.0,66,0.00,,SKC,0.00,VWS V14.01,2013-01-20 03:35:00,
2013-01-19 22:41:00,36.4,26.1,30.29,WNW,294,0.0,0.0,66,0.00,,SKC,0.00,VWS V14.01,2013-01-20 03:41:00,
2013-01-19 22:47:00,36.2,26.3,30.29,WNW,294,0.0,0.0,67,0.00,,SKC,0.00,VWS V14.01,2013-01-20 03:47:00,
2013-01-19 22:53:00,36.1,26.6,30.28,WNW,294,0.0,0.0,68,0.00,,SKC,0.00,VWS V14.01,2013-01-20 03:53:00,
2013-01-19 22:59:00,36.0,26.1,30.28,WNW,294,0.0,0.0,67,0.00,,SKC,0.00,VWS V14.01,2013-01-20 03:59:00,
2013-01-19 23:00:00,36.0,26.1,30.28,WNW,294,0.0,0.0,67,0.00,,SKC,0.00,VWS V14.01,2013-01-20 04:00:00,
2013-01-19 23:05:00,36.0,26.5,30.28,WNW,294,0.0,0.0,68,0.00,,SKC,0.00,VWS V14.01,2013-01-20 04:05:00,
2013-01-19 23:11:00,35.9,26.0,30.28,WNW,294,0.0,0.0,67,0.00,,SKC,0.00,VWS V14.01,2013-01-20 04:11:00,
2013-01-19 23:16:00,35.7,25.8,30.27,WNW,294,0.0,0.0,67,0.00,,SKC,0.00,VWS V14.01,2013-01-20 04:16:00,
2013-01-19 23:23:00,35.6,26.1,30.27,WNW,294,0.0,0.0,68,0.00,,SKC,0.00,VWS V14.01,2013-01-20 04:23:00,
2013-01-19 23:29:00,35.7,26.5,30.26,WNW,294,0.0,0.0,69,0.00,,SKC,0.00,VWS V14.01,2013-01-20 04:29:00,
2013-01-19 23:30:00,35.8,26.6,30.26,WNW,294,0.0,0.0,69,0.00,,SKC,0.00,VWS V14.01,2013-01-20 04:30:00,
2013-01-19 23:35:00,35.7,26.5,30.26,WNW,294,0.0,0.0,69,0.00,,SKC,0.00,VWS V14.01,2013-01-20 04:35:00,
2013-01-19 23:40:00,35.7,26.2,30.25,WNW,294,0.0,0.0,68,0.00,,SKC,0.00,VWS V14.01,2013-01-20 04:40:00,
2013-01-19 23:46:00,35.6,26.1,30.25,WNW,294,0.0,0.0,68,0.00,,SKC,0.00,VWS V14.01,2013-01-20 04:46:00,
2013-01-19 23:52:00,35.6,26.1,30.25,WNW,294,0.0,0.0,68,0.00,,SKC,0.00,VWS V14.01,2013-01-20 04:52:00,
2013-01-19 23:57:00,35.7,26.5,30.25,WNW,294,0.0,0.0,69,0.00,,SKC,0.00,VWS V14.01,2013-01-20 04:57:00,